Location: Corralito
(14.1667°N, 87.1833°W)
Time: 04:14:13
(UTC+00:00)

Cosmos 967 Rocket - Pass Details

Date: 07 June 2020
Orbit: 945 x 993 km, 65.8° (Epoch: 04 July)

Event Time Altitude Azimuth Distance (km) Brightness Sun altitude
Exits shadow 09:33:16 40° 197° (SSW) 1,406 4.9 -23.6°
Maximum altitude 09:35:46 86° 111° (ESE) 990 4.5 -23.1°
Drops below altitude 10° 09:42:14 10° 23° (NNE) 2,746 7.6 -21.7°
Sets 09:44:48 0° 23° (NNE) 3,697 8.4 -21.2°
